Monticello, KY

8:05 PM EDT on September 20, 2017 (GMT -0400)
Wayne County

Weather History for KEKQ - January, 2012

Change the Weather History Date:

Wednesday, January 25, 2012

  Actual Average Record
Temperature  
Mean Temperature 38 °F -  
Max Temperature 47 °F 47 °F 72 °F (1967)
Min Temperature 30 °F 28 °F -9 °F (1963)
Degree Days  
Heating Degree Days 26    
Moisture  
Dew Point 37 °F    
Average Humidity 90    
Maximum Humidity 100    
Minimum Humidity 66    
Precipitation  
Precipitation 0.02 in - - ()
Sea Level Pressure  
Sea Level Pressure 30.22 in    
Wind  
Wind Speed 2 mph (NNE)    
Max Wind Speed 8 mph    
Max Gust Speed -    
Visibility 8 miles    
Events Rain    
Averages and records for this station are not official NWS values.
T = Trace of Precipitation, MM = Missing Value Source: NWS Daily Summary

Daily Weather History Graph

Daily Weather History Graph

Search for Another Location

Airport or City:

Trip Planner

Search our weather history database for the weather conditions in past years. The results will help you decide how hot, cold, wet, or windy it might be!

Date:

Astronomy

Jan. 25, 2012 Rise Set
Actual Time 6:47 AM CST 4:56 PM CST
Civil Twilight 6:19 AM CST 5:24 PM CST
Nautical Twilight 5:47 AM CST 5:55 PM CST
Astronomical Twilight 5:17 AM CST 6:26 PM CST
Moon 7:51 AM CST (1/25) 7:43 PM CST (1/25)
Length of Visible Light 11h 05m
Length of Day
10h 09m
Waxing Crescent, 7% of the Moon is Illuminated
Jan 25
Waxing Crescent
Jan 30
First Quarter
Feb 7
Full
Feb 14
Last Quarter
Feb 21
New

Hourly Weather History & Observations

Time (CST) Temp. Windchill Dew Point Humidity Pressure Visibility Wind Dir Wind Speed Gust Speed Precip Events Conditions
12:56 AM 32.9 °F - 31.1 °F 93% 30.34 in 10.0 mi Calm Calm - N/A   Clear
1:56 AM 32.9 °F 26.7 °F 32.0 °F 96% 30.33 in 10.0 mi NNE 6.9 mph - N/A   Clear
2:56 AM 32.9 °F - 32.0 °F 96% 30.32 in 8.0 mi Calm Calm - N/A   Clear
4:56 AM 30.0 °F - 29.1 °F 96% 30.33 in 4.0 mi Calm Calm - N/A   Clear
5:56 AM 30.0 °F - 30.0 °F 100% 30.33 in 3.0 mi Calm Calm - N/A   Clear
6:56 AM 30.0 °F - 30.0 °F 100% 30.31 in 2.0 mi Calm Calm - N/A   Clear
7:21 AM 30.2 °F - 30.2 °F 100% 30.27 in 3.0 mi Calm Calm - N/A   Clear
7:56 AM 32.9 °F - 32.0 °F 96% 30.32 in 5.0 mi Calm Calm - N/A   Clear
8:56 AM 36.9 °F - 34.0 °F 89% 30.31 in 9.0 mi Calm Calm - N/A   Clear
9:56 AM 41.9 °F - 34.9 °F 76% 30.29 in 10.0 mi Calm Calm - N/A   Clear
11:56 AM 45.9 °F 42.3 °F 37.9 °F 74% 30.22 in 10.0 mi North 6.9 mph - N/A   Scattered Clouds
12:56 PM 47.8 °F - 36.9 °F 66% 30.19 in 10.0 mi North 8.1 mph - N/A   Clear
2:45 PM 46.4 °F - 41.0 °F 81% 30.18 in 3.0 mi Calm Calm - 0.01 in Rain Light Rain
2:56 PM 45.9 °F 44.6 °F 41.9 °F 86% 30.19 in 3.0 mi NNE 3.5 mph - 0.02 in Rain Light Rain
4:56 PM 45.9 °F 42.9 °F 41.9 °F 86% 30.17 in 10.0 mi NNE 5.8 mph - N/A   Mostly Cloudy
6:56 PM 45.9 °F 42.9 °F 41.9 °F 86% 30.16 in 10.0 mi NNE 5.8 mph - 0.00 in   Overcast
7:22 PM 44.6 °F 40.7 °F 42.8 °F 93% 30.11 in 4.0 mi NNE 6.9 mph - 0.00 in Rain Light Rain
7:56 PM 45.0 °F 43.5 °F 43.9 °F 96% 30.14 in 10.0 mi NE 3.5 mph - 0.00 in   Overcast
8:56 PM 45.9 °F - 43.9 °F 93% 30.13 in 10.0 mi Calm Calm - N/A   Overcast
9:56 PM 45.9 °F - 43.9 °F 93% 30.12 in 10.0 mi Calm Calm - N/A   Mostly Cloudy
10:56 PM 45.9 °F 43.6 °F 43.9 °F 93% 30.08 in 10.0 mi NNE 4.6 mph - N/A   Mostly Cloudy
11:56 PM 45.9 °F - 43.9 °F 93% 30.05 in 10.0 mi Calm Calm - N/A   Mostly Cloudy